User: anonymous   Login
Location: Caltech
(34.1382°N, 118.1253°W)
Time: 08:24:42
(UTC-08:00)
Language:

HO-68 - Orbit

View from above orbital plane
View from above orbital plane
View from above satellite
View from above satellite

Ground track
Ground track

The orbit data is extracted from the following two-line orbital elements,

1 36122U 09072B   18053.39696219 -.00000032  00000-0  26195-4 0  9997
2 36122 100.0834  73.3684 0007708  22.7381 337.4073 13.16343385393546
Epoch (UTC): 22 February 2018 09:31:37
Eccentricity: 0.0007708
inclination: 100.0834°
perigee height: 1193 km
apogee height: 1204 km
right ascension of ascending node: 73.3684°
argument of perigee: 22.7381°
revolutions per day: 13.16343385
mean anomaly at epoch: 337.4073°
orbit number at epoch: 39354

The dashed part of the orbit path shows where the satellite is in the earth's shadow,  

DLR